{"data":{"norad_id":53246,"intl_designator":"2022-086E","name":"STARLINK-4131","alt_names":[],"object_type":"PAYLOAD","status":"ACTIVE","operator":null,"country":"US","launch_date":"2022-07-24","launch_site_code":"AFETR","launch_vehicle":null,"mission":null,"orbit_class":"UNKNOWN","rcs_meters":null,"size_class":null,"mass_kg":null,"dimensions":null,"purposes":["comms"],"wikipedia_slug":null,"has_3d_model":false,"image_url":null,"decayed_at":null,"tle_current":{"epoch":"2026-09-20T00:52:38.098848Z","epoch_age_seconds":115502,"freshness":"FRESH","line1":"1 53246U 22086E   26263.03655207  .00000036  00000+0  12910-4 0  9990","line2":"2 53246  53.1597  38.9906 0001120  80.0933 280.0194 15.31695360229640","mean_motion":15.3169536,"eccentricity":0.000112,"inclination_deg":53.1597,"raan_deg":38.9906,"arg_perigee_deg":80.0933,"mean_anomaly_deg":280.0194,"bstar":1.291e-5,"rev_number":22964,"period_min":94.013472757403,"perigee_km":469.98675108651,"apogee_km":471.52090263173,"semimajor_km":6848.8908268591,"source":"CELESTRAK","updated_at":"2026-09-20T09:00:40.198190Z"}}}